| time (UTC) | temp F | wind direction | speed knots | gust knots | rain 1hr in | rain 24hr in | rain mn in | humidity % | barometer mb |
| 20260901094326 | 60 | 200 | 0.0 | 6.1 | 0.00 | 0.00 | 0.00 | 87 | 1007.4 |
| 20260901093825 | 60 | 179 | 2.6 | 6.1 | 0.00 | 0.00 | 0.00 | 87 | 1007.5 |
| 20260901093325 | 60 | 210 | 0.0 | 7.0 | 0.00 | 0.00 | 0.00 | 87 | 1007.4 |
| 20260901092826 | 60 | 210 | 1.7 | 7.0 | 0.00 | 0.00 | 0.00 | 87 | 1007.4 |
| 20260901092325 | 60 | 210 | 0.9 | 7.0 | 0.00 | 0.00 | 0.00 | 87 | 1007.4 |
| 20260901091825 | 60 | 217 | 1.7 | 7.8 | 0.00 | 0.00 | 0.00 | 87 | 1007.5 |
| 20260901091326 | 60 | 205 | 3.5 | 7.8 | 0.00 | 0.00 | 0.00 | 87 | 1007.5 |
| 20260901090825 | 60 | 198 | 3.5 | 7.8 | 0.00 | 0.00 | 0.00 | 87 | 1007.5 |
| 20260901090325 | 60 | 201 | 5.2 | 5.2 | 0.00 | 0.00 | 0.00 | 87 | 1007.6 |
| 20260901085826 | 60 | 218 | 0.9 | 5.2 | 0.00 | 0.00 | 0.00 | 87 | 1007.6 |
| 20260901085325 | 60 | 208 | 3.5 | 3.5 | 0.00 | 0.00 | 0.00 | 87 | 1007.5 |
| 20260901084825 | 60 | 191 | 0.9 | 3.5 | 0.00 | 0.00 | 0.00 | 87 | 1007.5 |
| 20260901084326 | 60 | 201 | 0.9 | 3.5 | 0.00 | 0.00 | 0.00 | 87 | 1007.5 |
| 20260901083825 | 60 | 210 | 1.7 | 3.5 | 0.00 | 0.00 | 0.00 | 87 | 1007.5 |
| 20260901083325 | 60 | 175 | 0.9 | 6.1 | 0.00 | 0.00 | 0.00 | 87 | 1007.6 |
| 20260901082826 | 60 | 161 | 0.9 | 6.1 | 0.00 | 0.00 | 0.00 | 87 | 1007.6 |
| 20260901082325 | 60 | 201 | 0.9 | 6.1 | 0.00 | 0.00 | 0.00 | 86 | 1007.6 |
| 20260901081825 | 60 | 187 | 4.3 | 5.2 | 0.00 | 0.00 | 0.00 | 86 | 1007.7 |
| 20260901081326 | 60 | 196 | 1.7 | 7.8 | 0.00 | 0.00 | 0.00 | 86 | 1007.6 |
| 20260901080825 | 60 | 187 | 1.7 | 7.8 | 0.00 | 0.00 | 0.00 | 86 | 1007.6 |
| 20260901080325 | 60 | 187 | 3.5 | 7.8 | 0.00 | 0.00 | 0.00 | 86 | 1007.6 |
| 20260901075826 | 60 | 215 | 4.3 | 7.0 | 0.00 | 0.00 | 0.00 | 86 | 1007.6 |
| 20260901075325 | 60 | 189 | 1.7 | 7.0 | 0.00 | 0.00 | 0.00 | 86 | 1007.6 |
| 20260901074825 | 60 | 194 | 2.6 | 7.0 | 0.00 | 0.00 | 0.00 | 86 | 1007.7 |
| 20260901074326 | 60 | 189 | 3.5 | 8.7 | 0.00 | 0.00 | 0.00 | 86 | 1007.6 |
| 20260901073825 | 61 | 211 | 2.6 | 8.7 | 0.00 | 0.00 | 0.00 | 86 | 1007.5 |
| 20260901073325 | 61 | 196 | 2.6 | 8.7 | 0.00 | 0.00 | 0.00 | 86 | 1007.5 |
| 20260901072826 | 61 | 196 | 3.5 | 7.0 | 0.00 | 0.00 | 0.00 | 86 | 1007.5 |
| 20260901072325 | 61 | 205 | 5.2 | 9.6 | 0.00 | 0.00 | 0.00 | 86 | 1007.5 |
| 20260901071825 | 61 | 211 | 4.3 | 9.6 | 0.00 | 0.00 | 0.00 | 86 | 1007.5 |
| 20260901071326 | 60 | 189 | 4.3 | 9.6 | 0.00 | 0.00 | 0.00 | 86 | 1007.5 |
| 20260901070825 | 60 | 200 | 5.2 | 9.6 | 0.00 | 0.00 | 0.00 | 86 | 1007.5 |
| 20260901070325 | 60 | 187 | 3.5 | 9.6 | 0.00 | 0.00 | 0.00 | 86 | 1007.5 |
| 20260901065826 | 60 | 163 | 5.2 | 9.6 | 0.00 | 0.00 | 0.00 | 86 | 1007.5 |
| 20260901065325 | 60 | 180 | 3.5 | 8.7 | 0.00 | 0.00 | 0.00 | 86 | 1007.4 |
| 20260901064825 | 60 | 193 | 2.6 | 8.7 | 0.00 | 0.00 | 0.00 | 86 | 1007.4 |
| 20260901064326 | 60 | 186 | 4.3 | 8.7 | 0.00 | 0.00 | 0.00 | 86 | 1007.4 |
| 20260901063825 | 60 | 212 | 6.1 | 8.7 | 0.00 | 0.00 | 0.00 | 86 | 1007.4 |
| 20260901063325 | 61 | 201 | 3.5 | 7.0 | 0.00 | 0.00 | 0.00 | 86 | 1007.4 |
| 20260901062825 | 61 | 193 | 3.5 | 7.0 | 0.00 | 0.00 | 0.00 | 86 | 1007.4 |
| 20260901062325 | 61 | 177 | 3.5 | 7.0 | 0.00 | 0.00 | 0.00 | 85 | 1007.5 |
| 20260901061825 | 61 | 204 | 3.5 | 7.8 | 0.00 | 0.00 | 0.00 | 85 | 1007.5 |
| 20260901061326 | 60 | 204 | 1.7 | 7.8 | 0.00 | 0.00 | 0.00 | 85 | 1007.5 |
| 20260901060825 | 61 | 201 | 1.7 | 7.8 | 0.00 | 0.00 | 0.00 | 85 | 1007.6 |
| 20260901060325 | 61 | 205 | 1.7 | 7.8 | 0.00 | 0.00 | 0.00 | 85 | 1007.5 |
| 20260901055325 | 61 | 201 | 3.5 | 7.8 | 0.00 | 0.00 | 0.00 | 85 | 1007.5 |
| 20260901054825 | 61 | 189 | 4.3 | 7.0 | 0.00 | 0.00 | 0.00 | 85 | 1007.4 |
| 20260901054326 | 61 | 225 | 2.6 | 7.0 | 0.00 | 0.00 | 0.00 | 85 | 1007.4 |
| 20260901053826 | 61 | 221 | 2.6 | 6.1 | 0.00 | 0.00 | 0.00 | 84 | 1007.4 |
| 20260901053325 | 61 | 198 | 0.0 | 3.5 | 0.00 | 0.00 | 0.00 | 84 | 1007.5 |
| 20260901052826 | 61 | 225 | 0.0 | 3.5 | 0.00 | 0.00 | 0.00 | 84 | 1007.4 |
| 20260901052325 | 61 | 242 | 0.0 | 1.7 | 0.00 | 0.00 | 0.00 | 84 | 1007.5 |
| 20260901051825 | 61 | 295 | 0.0 | 1.7 | 0.00 | 0.00 | 0.00 | 84 | 1007.4 |
| 20260901051326 | 62 | 0 | 0.0 | 0.0 | 0.00 | 0.00 | 0.00 | 84 | 1007.4 |
| 20260901050825 | 62 | 0 | 0.0 | 0.0 | 0.00 | 0.00 | 0.00 | 84 | 1007.4 |
| 20260901050325 | 62 | 0 | 0.0 | 0.0 | 0.00 | 0.00 | 0.00 | 84 | 1007.4 |
| 20260901045826 | 62 | 0 | 0.0 | 0.0 | 0.00 | 0.00 | 0.00 | 84 | 1007.3 |
| 20260901045325 | 62 | 0 | 0.0 | 0.0 | 0.00 | 0.00 | 0.00 | 84 | 1007.3 |
| 20260901044825 | 62 | 0 | 0.0 | 0.0 | 0.00 | 0.00 | 0.00 | 84 | 1007.3 |
| 20260901044326 | 62 | 0 | 0.0 | 0.0 | 0.00 | 0.00 | 0.00 | 84 | 1007.3 |
| 20260901043825 | 62 | 0 | 0.0 | 0.0 | 0.00 | 0.00 | 0.00 | 84 | 1007.4 |
| 20260901043325 | 62 | 0 | 0.0 | 0.0 | 0.00 | 0.00 | 0.00 | 84 | 1007.4 |
| 20260901042825 | 62 | 0 | 0.0 | 1.7 | 0.00 | 0.00 | 0.00 | 84 | 1007.4 |
| 20260901042325 | 62 | 247 | 0.0 | 1.7 | 0.00 | 0.00 | 0.00 | 84 | 1007.4 |
| 20260901041825 | 62 | 235 | 0.0 | 1.7 | 0.00 | 0.00 | 0.00 | 83 | 1007.4 |
| 20260901041326 | 62 | 0 | 0.0 | 3.5 | 0.00 | 0.00 | 0.00 | 83 | 1007.4 |
| 20260901040825 | 62 | 257 | 0.0 | 3.5 | 0.00 | 0.00 | 0.00 | 83 | 1007.4 |
| 20260901040325 | 62 | 271 | 0.0 | 3.5 | 0.00 | 0.00 | 0.00 | 83 | 1007.3 |
| 20260901035826 | 62 | 0 | 0.0 | 0.0 | 0.00 | 0.00 | 0.00 | 83 | 1007.3 |
| 20260901035325 | 62 | 0 | 0.0 | 0.0 | 0.00 | 0.00 | 0.00 | 83 | 1007.2 |
| 20260901034825 | 62 | 0 | 0.0 | 0.0 | 0.00 | 0.00 | 0.00 | 83 | 1007.1 |
| 20260901034326 | 62 | 0 | 0.0 | 2.6 | 0.00 | 0.00 | 0.00 | 83 | 1007.1 |
| 20260901033825 | 62 | 0 | 0.0 | 2.6 | 0.00 | 0.00 | 0.00 | 83 | 1007.1 |
| 20260901033325 | 62 | 256 | 0.0 | 2.6 | 0.00 | 0.00 | 0.00 | 83 | 1007.0 |
| 20260901032826 | 62 | 329 | 2.6 | 5.2 | 0.00 | 0.00 | 0.00 | 83 | 1006.9 |
| 20260901032325 | 62 | 313 | 0.0 | 5.2 | 0.00 | 0.00 | 0.00 | 83 | 1006.8 |
| 20260901031825 | 62 | 7 | 0.9 | 5.2 | 0.00 | 0.00 | 0.00 | 83 | 1006.8 |
| 20260901031326 | 62 | 347 | 2.6 | 2.6 | 0.00 | 0.00 | 0.00 | 83 | 1006.7 |
| 20260901030826 | 63 | 0 | 0.0 | 0.0 | 0.00 | 0.00 | 0.00 | 83 | 1006.7 |
| 20260901030325 | 62 | 336 | 0.0 | 3.5 | 0.00 | 0.00 | 0.00 | 83 | 1006.7 |
| 20260901025826 | 62 | 317 | 0.0 | 3.5 | 0.00 | 0.00 | 0.00 | 83 | 1006.8 |
| 20260901025325 | 62 | 315 | 0.9 | 3.5 | 0.00 | 0.00 | 0.00 | 83 | 1006.8 |
| 20260901024825 | 62 | 7 | 1.7 | 2.6 | 0.00 | 0.00 | 0.00 | 83 | 1006.8 |
| 20260901024326 | 62 | 324 | 0.9 | 3.5 | 0.00 | 0.00 | 0.00 | 83 | 1006.8 |
| 20260901023825 | 62 | 344 | 0.9 | 3.5 | 0.00 | 0.00 | 0.00 | 83 | 1006.7 |
| 20260901023325 | 62 | 317 | 0.9 | 3.5 | 0.00 | 0.00 | 0.00 | 83 | 1006.6 |
| 20260901022826 | 62 | 327 | 1.7 | 7.8 | 0.00 | 0.00 | 0.00 | 83 | 1006.7 |
| 20260901022325 | 62 | 341 | 3.5 | 7.8 | 0.00 | 0.00 | 0.00 | 83 | 1006.6 |
| 20260901021828 | 62 | 330 | 5.2 | 7.8 | 0.00 | 0.00 | 0.00 | 83 | 1006.7 |
| 20260901021326 | 62 | 320 | 5.2 | 10.4 | 0.00 | 0.00 | 0.00 | 83 | 1006.6 |
| 20260901020825 | 62 | 333 | 6.1 | 10.4 | 0.00 | 0.00 | 0.00 | 83 | 1006.5 |
| 20260901020325 | 62 | 330 | 5.2 | 10.4 | 0.00 | 0.00 | 0.00 | 83 | 1006.6 |
| 20260901015826 | 62 | 315 | 7.0 | 9.6 | 0.00 | 0.00 | 0.00 | 82 | 1006.5 |
| 20260901015326 | 62 | 323 | 6.1 | 9.6 | 0.00 | 0.00 | 0.00 | 82 | 1006.4 |
| 20260901014825 | 63 | 313 | 7.0 | 11.3 | 0.00 | 0.00 | 0.00 | 82 | 1006.4 |
| 20260901014326 | 63 | 312 | 7.8 | 11.3 | 0.00 | 0.00 | 0.00 | 82 | 1006.2 |
| 20260901013825 | 63 | 324 | 5.2 | 11.3 | 0.00 | 0.00 | 0.00 | 82 | 1006.2 |
| 20260901013325 | 63 | 331 | 7.8 | 12.2 | 0.00 | 0.00 | 0.00 | 81 | 1006.2 |
| 20260901012826 | 63 | 326 | 7.0 | 12.2 | 0.00 | 0.00 | 0.00 | 81 | 1006.3 |
| 20260901012325 | 64 | 336 | 7.8 | 12.2 | 0.00 | 0.00 | 0.00 | 81 | 1006.2 |
| 20260901011825 | 64 | 326 | 5.2 | 8.7 | 0.00 | 0.00 | 0.00 | 81 | 1006.2 |
| 20260901011326 | 64 | 330 | 6.1 | 8.7 | 0.00 | 0.00 | 0.00 | 81 | 1006.3 |
| 20260901010918 | 64 | 302 | 3.5 | 7.8 | 0.00 | 0.00 | 0.00 | 81 | 1006.4 |
| 20260901010825 | 64 | 302 | 3.5 | 7.8 | 0.00 | 0.00 | 0.00 | 81 | 1006.4 |
| 20260901010325 | 64 | 305 | 5.2 | 7.8 | 0.00 | 0.00 | 0.00 | 80 | 1006.4 |
| 20260901005826 | 64 | 308 | 4.3 | 7.8 | 0.00 | 0.00 | 0.00 | 80 | 1006.5 |
| 20260901005325 | 65 | 317 | 5.2 | 7.8 | 0.00 | 0.00 | 0.00 | 80 | 1006.5 |
| 20260901004825 | 65 | 281 | 4.3 | 7.8 | 0.00 | 0.00 | 0.00 | 80 | 1006.5 |
| 20260901004326 | 65 | 295 | 5.2 | 7.8 | 0.00 | 0.00 | 0.00 | 79 | 1006.5 |
| 20260901003825 | 65 | 287 | 5.2 | 7.8 | 0.00 | 0.00 | 0.00 | 79 | 1006.5 |
| 20260901003325 | 66 | 287 | 6.1 | 7.8 | 0.00 | 0.00 | 0.00 | 79 | 1006.5 |
| 20260901002826 | 66 | 291 | 5.2 | 9.6 | 0.00 | 0.00 | 0.00 | 79 | 1006.5 |
| 20260901002325 | 66 | 277 | 6.1 | 9.6 | 0.00 | 0.00 | 0.00 | 79 | 1006.5 |
| 20260901001825 | 66 | 292 | 5.2 | 9.6 | 0.00 | 0.00 | 0.00 | 78 | 1006.4 |
| 20260901001326 | 66 | 301 | 5.2 | 9.6 | 0.00 | 0.00 | 0.00 | 78 | 1006.5 |
| 20260901000825 | 66 | 285 | 7.0 | 9.6 | 0.00 | 0.00 | 0.00 | 78 | 1006.5 |
| 20260901000325 | 66 | 285 | 6.1 | 9.6 | 0.00 | 0.00 | 0.00 | 78 | 1006.5 |
| 20260831235826 | 66 | 289 | 7.0 | 8.7 | 0.00 | 0.00 | 0.00 | 78 | 1006.5 |
| 20260831234825 | 67 | 292 | 5.2 | 8.7 | 0.00 | 0.00 | 0.00 | 78 | 1006.5 |
| 20260831233825 | 66 | 306 | 7.0 | 9.6 | 0.00 | 0.00 | 0.00 | 79 | 1006.4 |
| 20260831233325 | 66 | 287 | 6.1 | 9.6 | 0.00 | 0.00 | 0.00 | 79 | 1006.5 |
| 20260831232826 | 66 | 292 | 7.0 | 10.4 | 0.00 | 0.00 | 0.00 | 79 | 1006.4 |
| 20260831232325 | 66 | 317 | 7.0 | 10.4 | 0.00 | 0.00 | 0.00 | 78 | 1006.5 |
| 20260831231825 | 66 | 301 | 7.0 | 10.4 | 0.00 | 0.00 | 0.00 | 78 | 1006.5 |
| 20260831231326 | 66 | 302 | 7.8 | 9.6 | 0.00 | 0.00 | 0.00 | 78 | 1006.5 |
| 20260831230826 | 66 | 298 | 7.8 | 9.6 | 0.00 | 0.00 | 0.00 | 78 | 1006.5 |
| 20260831230325 | 66 | 288 | 7.8 | 9.6 | 0.00 | 0.00 | 0.00 | 78 | 1006.5 |
| 20260831225826 | 66 | 282 | 7.8 | 9.6 | 0.00 | 0.00 | 0.00 | 77 | 1006.4 |
| 20260831225325 | 67 | 301 | 7.0 | 8.7 | 0.00 | 0.00 | 0.00 | 77 | 1006.4 |
| 20260831224825 | 67 | 284 | 5.2 | 8.7 | 0.00 | 0.00 | 0.00 | 77 | 1006.3 |
| 20260831224326 | 67 | 292 | 6.1 | 8.7 | 0.00 | 0.00 | 0.00 | 77 | 1006.4 |
| 20260831223825 | 68 | 287 | 5.2 | 7.8 | 0.00 | 0.00 | 0.00 | 76 | 1006.3 |
| 20260831223325 | 68 | 298 | 5.2 | 7.8 | 0.00 | 0.00 | 0.00 | 76 | 1006.3 |
| 20260831222826 | 68 | 287 | 6.1 | 9.6 | 0.00 | 0.00 | 0.00 | 76 | 1006.3 |
| 20260831222325 | 68 | 268 | 6.1 | 9.6 | 0.00 | 0.00 | 0.00 | 76 | 1006.3 |
| 20260831221825 | 68 | 288 | 6.1 | 9.6 | 0.00 | 0.00 | 0.00 | 76 | 1006.3 |
| 20260831221326 | 68 | 285 | 6.1 | 9.6 | 0.00 | 0.00 | 0.00 | 75 | 1006.3 |
| 20260831220825 | 69 | 289 | 7.8 | 10.4 | 0.00 | 0.00 | 0.00 | 75 | 1006.3 |
| 20260831220325 | 69 | 291 | 6.1 | 10.4 | 0.00 | 0.00 | 0.00 | 75 | 1006.2 |
| 20260831215826 | 69 | 280 | 6.1 | 10.4 | 0.00 | 0.00 | 0.00 | 75 | 1006.2 |
| 20260831215325 | 69 | 288 | 7.0 | 10.4 | 0.00 | 0.00 | 0.00 | 75 | 1006.2 |
| 20260831214825 | 69 | 275 | 6.1 | 10.4 | 0.00 | 0.00 | 0.00 | 75 | 1006.2 |
| 20260831214326 | 69 | 281 | 7.0 | 10.4 | 0.00 | 0.00 | 0.00 | 75 | 1006.2 |
| 20260831213825 | 69 | 284 | 6.1 | 10.4 | 0.00 | 0.00 | 0.00 | 75 | 1006.2 |
| 20260831213325 | 69 | 288 | 5.2 | 8.7 | 0.00 | 0.00 | 0.00 | 75 | 1006.2 |
| 20260831212826 | 69 | 282 | 6.1 | 10.4 | 0.00 | 0.00 | 0.00 | 76 | 1006.3 |
| 20260831212325 | 69 | 309 | 6.1 | 10.4 | 0.00 | 0.00 | 0.00 | 75 | 1006.3 |
| 20260831211825 | 69 | 273 | 5.2 | 10.4 | 0.00 | 0.00 | 0.00 | 75 | 1006.4 |
| 20260831211326 | 69 | 301 | 4.3 | 8.7 | 0.00 | 0.00 | 0.00 | 76 | 1006.4 |
| 20260831210825 | 69 | 280 | 6.1 | 8.7 | 0.00 | 0.00 | 0.00 | 75 | 1006.3 |
| 20260831210326 | 69 | 296 | 6.1 | 7.8 | 0.00 | 0.00 | 0.00 | 75 | 1006.4 |
| 20260831205826 | 69 | 285 | 5.2 | 7.8 | 0.00 | 0.00 | 0.00 | 74 | 1006.4 |
| 20260831205325 | 69 | 299 | 3.5 | 8.7 | 0.00 | 0.00 | 0.00 | 75 | 1006.3 |
| 20260831204825 | 69 | 291 | 6.1 | 8.7 | 0.00 | 0.00 | 0.00 | 75 | 1006.3 |
| 20260831204326 | 69 | 287 | 5.2 | 8.7 | 0.00 | 0.00 | 0.00 | 74 | 1006.4 |
| 20260831203825 | 69 | 308 | 7.0 | 8.7 | 0.00 | 0.00 | 0.00 | 73 | 1006.4 |
| 20260831203325 | 70 | 281 | 6.1 | 8.7 | 0.00 | 0.00 | 0.00 | 73 | 1006.4 |
| 20260831202826 | 69 | 306 | 6.1 | 9.6 | 0.00 | 0.00 | 0.00 | 74 | 1006.5 |
| 20260831202325 | 69 | 303 | 7.0 | 9.6 | 0.00 | 0.00 | 0.00 | 74 | 1006.5 |
| 20260831201825 | 69 | 291 | 6.1 | 9.6 | 0.00 | 0.00 | 0.00 | 74 | 1006.6 |
| 20260831201326 | 69 | 322 | 6.1 | 7.8 | 0.00 | 0.00 | 0.00 | 74 | 1006.6 |
| 20260831200825 | 69 | 294 | 5.2 | 7.8 | 0.00 | 0.00 | 0.00 | 75 | 1006.6 |
| 20260831200325 | 69 | 317 | 5.2 | 6.1 | 0.00 | 0.00 | 0.00 | 75 | 1006.6 |
| 20260831195826 | 69 | 284 | 4.3 | 7.8 | 0.00 | 0.00 | 0.00 | 74 | 1006.5 |
| 20260831195325 | 69 | 333 | 5.2 | 7.8 | 0.00 | 0.00 | 0.00 | 75 | 1006.5 |
| 20260831194825 | 69 | 343 | 5.2 | 7.8 | 0.00 | 0.00 | 0.00 | 74 | 1006.6 |
| 20260831194326 | 69 | 331 | 5.2 | 7.0 | 0.00 | 0.00 | 0.00 | 74 | 1006.5 |
| 20260831193825 | 69 | 298 | 4.3 | 7.8 | 0.00 | 0.00 | 0.00 | 75 | 1006.6 |
| 20260831193325 | 69 | 309 | 5.2 | 7.8 | 0.00 | 0.00 | 0.00 | 74 | 1006.6 |
| 20260831192826 | 69 | 315 | 5.2 | 7.8 | 0.00 | 0.00 | 0.00 | 74 | 1006.6 |
| 20260831192325 | 69 | 298 | 7.0 | 8.7 | 0.00 | 0.00 | 0.00 | 75 | 1006.7 |
| 20260831191825 | 69 | 313 | 5.2 | 8.7 | 0.00 | 0.00 | 0.00 | 74 | 1006.6 |
| 20260831191326 | 69 | 277 | 5.2 | 8.7 | 0.00 | 0.00 | 0.00 | 74 | 1006.7 |
| 20260831190825 | 68 | 288 | 5.2 | 7.8 | 0.00 | 0.00 | 0.00 | 74 | 1006.8 |
| 20260831190325 | 69 | 298 | 5.2 | 7.8 | 0.00 | 0.00 | 0.00 | 74 | 1006.8 |
| 20260831185826 | 68 | 301 | 3.5 | 6.1 | 0.00 | 0.00 | 0.00 | 75 | 1007.0 |
| 20260831185325 | 68 | 287 | 4.3 | 6.1 | 0.00 | 0.00 | 0.00 | 75 | 1007.0 |
| 20260831184825 | 68 | 282 | 3.5 | 6.1 | 0.00 | 0.00 | 0.00 | 76 | 1007.0 |
| 20260831183825 | 67 | 337 | 2.6 | 6.1 | 0.00 | 0.00 | 0.00 | 74 | 1007.0 |
| 20260831183325 | 67 | 324 | 3.5 | 6.1 | 0.00 | 0.00 | 0.00 | 76 | 1006.9 |
| 20260831182826 | 67 | 288 | 3.5 | 6.1 | 0.00 | 0.00 | 0.00 | 77 | 1007.0 |
| 20260831182325 | 67 | 292 | 2.6 | 7.0 | 0.00 | 0.00 | 0.00 | 77 | 1007.0 |
| 20260831181825 | 67 | 320 | 3.5 | 7.0 | 0.00 | 0.00 | 0.00 | 77 | 1007.0 |
| 20260831181326 | 67 | 284 | 2.6 | 7.0 | 0.00 | 0.00 | 0.00 | 77 | 1007.1 |
| 20260831180825 | 66 | 292 | 5.2 | 5.2 | 0.00 | 0.00 | 0.00 | 79 | 1007.1 |
| 20260831180325 | 66 | 289 | 3.5 | 5.2 | 0.00 | 0.00 | 0.00 | 79 | 1007.0 |
| 20260831175826 | 65 | 291 | 3.5 | 6.1 | 0.00 | 0.00 | 0.00 | 80 | 1007.0 |
| 20260831175325 | 65 | 274 | 1.7 | 6.1 | 0.00 | 0.00 | 0.00 | 81 | 1007.0 |
| 20260831174825 | 65 | 275 | 2.6 | 6.1 | 0.00 | 0.00 | 0.00 | 81 | 1007.0 |
| 20260831174326 | 64 | 282 | 3.5 | 5.2 | 0.00 | 0.00 | 0.00 | 82 | 1007.0 |
| 20260831173825 | 64 | 288 | 2.6 | 5.2 | 0.00 | 0.00 | 0.00 | 82 | 1007.1 |
| 20260831173325 | 63 | 280 | 2.6 | 5.2 | 0.00 | 0.00 | 0.00 | 83 | 1007.1 |
| 20260831172826 | 63 | 284 | 3.5 | 5.2 | 0.00 | 0.00 | 0.00 | 82 | 1007.1 |
| 20260831172325 | 63 | 303 | 1.7 | 5.2 | 0.00 | 0.00 | 0.00 | 83 | 1007.1 |
| 20260831171825 | 63 | 280 | 1.7 | 5.2 | 0.00 | 0.00 | 0.00 | 84 | 1007.1 |
| 20260831170825 | 62 | 320 | 2.6 | 4.3 | 0.00 | 0.00 | 0.00 | 85 | 1007.1 |
| 20260831170325 | 62 | 299 | 1.7 | 2.6 | 0.00 | 0.00 | 0.00 | 85 | 1007.1 |
| 20260831165826 | 62 | 298 | 1.7 | 3.5 | 0.00 | 0.00 | 0.00 | 86 | 1007.1 |
| 20260831165325 | 62 | 312 | 1.7 | 3.5 | 0.00 | 0.00 | 0.00 | 86 | 1007.1 |
| 20260831164825 | 61 | 301 | 2.6 | 3.5 | 0.00 | 0.00 | 0.00 | 86 | 1007.1 |
| 20260831163825 | 61 | 275 | 1.7 | 4.3 | 0.00 | 0.00 | 0.00 | 87 | 1007.2 |
| 20260831163325 | 61 | 296 | 1.7 | 4.3 | 0.00 | 0.00 | 0.00 | 87 | 1007.2 |
| 20260831162826 | 61 | 289 | 2.6 | 4.3 | 0.00 | 0.00 | 0.00 | 87 | 1007.3 |
| 20260831162325 | 61 | 319 | 0.9 | 3.5 | 0.00 | 0.00 | 0.00 | 87 | 1007.4 |
| 20260831161825 | 60 | 317 | 1.7 | 3.5 | 0.00 | 0.00 | 0.00 | 87 | 1007.4 |
| 20260831161326 | 60 | 0 | 2.6 | 2.6 | 0.00 | 0.00 | 0.00 | 88 | 1007.4 |
| 20260831160825 | 59 | 0 | 0.0 | 0.9 | 0.00 | 0.00 | 0.00 | 88 | 1007.4 |
| 20260831160325 | 58 | 285 | 0.0 | 0.9 | 0.00 | 0.00 | 0.00 | 88 | 1007.4 |
| 20260831155826 | 57 | 295 | 0.0 | 0.9 | 0.00 | 0.00 | 0.00 | 87 | 1007.4 |
| 20260831155325 | 57 | 0 | 0.0 | 0.0 | 0.00 | 0.00 | 0.00 | 87 | 1007.5 |
| 20260831154825 | 57 | 0 | 0.0 | 0.0 | 0.00 | 0.00 | 0.00 | 87 | 1007.5 |
| 20260831154326 | 56 | 0 | 0.0 | 0.0 | 0.00 | 0.00 | 0.00 | 87 | 1007.6 |
| 20260831153825 | 56 | 0 | 0.0 | 0.0 | 0.00 | 0.00 | 0.00 | 87 | 1007.7 |
| 20260831153326 | 56 | 0 | 0.0 | 0.0 | 0.00 | 0.00 | 0.00 | 87 | 1007.6 |
| 20260831152826 | 56 | 0 | 0.0 | 0.0 | 0.00 | 0.00 | 0.00 | 87 | 1007.6 |
| 20260831152325 | 56 | 0 | 0.0 | 0.0 | 0.00 | 0.00 | 0.00 | 87 | 1007.6 |
| 20260831151825 | 56 | 0 | 0.0 | 0.0 | 0.00 | 0.00 | 0.00 | 87 | 1007.7 |
| 20260831151326 | 55 | 0 | 0.0 | 0.0 | 0.00 | 0.00 | 0.00 | 87 | 1007.7 |
| 20260831150825 | 55 | 0 | 0.0 | 0.0 | 0.00 | 0.00 | 0.00 | 87 | 1007.7 |
| 20260831150325 | 55 | 0 | 0.0 | 0.0 | 0.00 | 0.00 | 0.00 | 86 | 1007.7 |
| 20260831145826 | 55 | 0 | 0.0 | 0.0 | 0.00 | 0.00 | 0.00 | 86 | 1007.7 |
| 20260831145325 | 55 | 0 | 0.0 | 0.0 | 0.00 | 0.00 | 0.00 | 86 | 1007.6 |
| 20260831144825 | 55 | 0 | 0.0 | 0.0 | 0.00 | 0.00 | 0.00 | 86 | 1007.6 |
| 20260831144326 | 54 | 0 | 0.0 | 0.0 | 0.00 | 0.00 | 0.00 | 86 | 1007.6 |
| 20260831143825 | 54 | 0 | 0.0 | 0.0 | 0.00 | 0.00 | 0.00 | 86 | 1007.6 |
| 20260831143325 | 54 | 0 | 0.0 | 2.6 | 0.00 | 0.00 | 0.00 | 86 | 1007.5 |
| 20260831142826 | 54 | 0 | 0.0 | 2.6 | 0.00 | 0.00 | 0.00 | 86 | 1007.4 |
| 20260831142326 | 54 | 95 | 0.0 | 2.6 | 0.00 | 0.00 | 0.00 | 86 | 1007.4 |
| 20260831141825 | 54 | 96 | 1.7 | 1.7 | 0.00 | 0.00 | 0.00 | 86 | 1007.4 |
| 20260831141326 | 54 | 105 | 0.9 | 4.3 | 0.00 | 0.00 | 0.00 | 86 | 1007.3 |
| 20260831140825 | 54 | 103 | 0.9 | 4.3 | 0.00 | 0.00 | 0.00 | 86 | 1007.3 |
| 20260831140325 | 54 | 106 | 3.5 | 4.3 | 0.00 | 0.00 | 0.00 | 86 | 1007.3 |
| 20260831135826 | 54 | 99 | 3.5 | 4.3 | 0.00 | 0.00 | 0.00 | 86 | 1007.2 |
| 20260831135325 | 54 | 100 | 3.5 | 4.3 | 0.00 | 0.00 | 0.00 | 86 | 1007.2 |
| 20260831134825 | 55 | 103 | 3.5 | 3.5 | 0.00 | 0.00 | 0.00 | 86 | 1007.2 |
| 20260831134326 | 55 | 109 | 2.6 | 3.5 | 0.00 | 0.00 | 0.00 | 86 | 1007.4 |
| 20260831133825 | 55 | 91 | 0.0 | 3.5 | 0.00 | 0.00 | 0.00 | 85 | 1007.4 |
| 20260831133325 | 55 | 89 | 0.0 | 3.5 | 0.00 | 0.00 | 0.00 | 85 | 1007.4 |
| 20260831132826 | 55 | 110 | 2.6 | 2.6 | 0.00 | 0.00 | 0.00 | 85 | 1007.4 |
| 20260831132325 | 55 | 117 | 0.9 | 2.6 | 0.00 | 0.00 | 0.00 | 85 | 1007.5 |
| 20260831131825 | 55 | 99 | 1.7 | 3.5 | 0.00 | 0.00 | 0.00 | 85 | 1007.5 |
| 20260831130825 | 55 | 103 | 0.9 | 3.5 | 0.00 | 0.00 | 0.00 | 85 | 1007.6 |
| 20260831130325 | 55 | 113 | 1.7 | 2.6 | 0.00 | 0.00 | 0.00 | 85 | 1007.6 |
| 20260831125827 | 55 | 92 | 1.7 | 2.6 | 0.00 | 0.00 | 0.00 | 85 | 1007.6 |
| 20260831125325 | 55 | 77 | 1.7 | 2.6 | 0.00 | 0.00 | 0.00 | 85 | 1007.6 |
| 20260831124825 | 55 | 91 | 0.0 | 2.6 | 0.00 | 0.00 | 0.00 | 85 | 1007.5 |
| 20260831123825 | 55 | 105 | 0.9 | 1.7 | 0.00 | 0.00 | 0.00 | 85 | 1007.5 |
| 20260831123326 | 55 | 0 | 0.0 | 0.0 | 0.00 | 0.00 | 0.00 | 85 | 1007.6 |
| 20260831122826 | 55 | 0 | 0.0 | 0.0 | 0.00 | 0.00 | 0.00 | 85 | 1007.7 |
| 20260831122325 | 55 | 0 | 0.0 | 2.6 | 0.00 | 0.00 | 0.00 | 85 | 1007.7 |
| 20260831121825 | 55 | 85 | 0.0 | 2.6 | 0.00 | 0.00 | 0.00 | 85 | 1007.8 |
| 20260831121326 | 55 | 107 | 0.9 | 2.6 | 0.00 | 0.00 | 0.00 | 85 | 1007.7 |
| 20260831120825 | 55 | 84 | 2.6 | 2.6 | 0.00 | 0.00 | 0.00 | 84 | 1007.8 |
| 20260831120325 | 56 | 93 | 2.6 | 2.6 | 0.00 | 0.00 | 0.00 | 84 | 1007.8 |
| 20260831115826 | 56 | 92 | 1.7 | 1.7 | 0.00 | 0.00 | 0.00 | 84 | 1007.9 |
| 20260831115325 | 56 | 103 | 0.9 | 4.3 | 0.00 | 0.00 | 0.00 | 84 | 1007.9 |
| 20260831114825 | 56 | 106 | 0.0 | 4.3 | 0.00 | 0.00 | 0.00 | 84 | 1007.9 |
| 20260831113825 | 56 | 91 | 3.5 | 3.5 | 0.00 | 0.00 | 0.00 | 84 | 1007.9 |
| 20260831113325 | 56 | 103 | 3.5 | 3.5 | 0.00 | 0.00 | 0.00 | 84 | 1007.9 |
| 20260831112826 | 56 | 100 | 1.7 | 3.5 | 0.00 | 0.00 | 0.00 | 84 | 1008.0 |
| 20260831112325 | 56 | 98 | 1.7 | 3.5 | 0.00 | 0.00 | 0.00 | 84 | 1008.0 |
| 20260831111825 | 56 | 106 | 1.7 | 2.6 | 0.00 | 0.00 | 0.00 | 84 | 1008.1 |
| 20260831110825 | 56 | 0 | 0.0 | 1.7 | 0.00 | 0.00 | 0.00 | 84 | 1008.1 |
| 20260831110325 | 56 | 91 | 0.0 | 1.7 | 0.00 | 0.00 | 0.00 | 84 | 1008.2 |
| 20260831105826 | 56 | 0 | 0.9 | 0.9 | 0.00 | 0.00 | 0.00 | 84 | 1008.2 |
| 20260831105325 | 56 | 0 | 0.0 | 1.7 | 0.00 | 0.00 | 0.00 | 83 | 1008.2 |
| 20260831104825 | 56 | 91 | 0.0 | 1.7 | 0.00 | 0.00 | 0.00 | 83 | 1008.2 |
| 20260831104326 | 56 | 102 | 0.9 | 1.7 | 0.00 | 0.00 | 0.00 | 83 | 1008.1 |
| 20260831103825 | 56 | 99 | 0.9 | 1.7 | 0.00 | 0.00 | 0.00 | 83 | 1008.1 |
| 20260831103325 | 56 | 88 | 0.9 | 0.9 | 0.00 | 0.00 | 0.00 | 83 | 1008.2 |
| 20260831102826 | 56 | 75 | 0.0 | 1.7 | 0.00 | 0.00 | 0.00 | 83 | 1008.2 |
| 20260831102326 | 57 | 86 | 0.9 | 1.7 | 0.00 | 0.00 | 0.00 | 83 | 1008.2 |
| 20260831101825 | 57 | 86 | 0.9 | 1.7 | 0.00 | 0.00 | 0.00 | 83 | 1008.2 |
| 20260831101326 | 57 | 0 | 0.0 | 0.0 | 0.00 | 0.00 | 0.00 | 83 | 1008.3 |
| 20260831100825 | 57 | 0 | 0.0 | 0.0 | 0.00 | 0.00 | 0.00 | 83 | 1008.4 |
| 20260831100325 | 56 | 0 | 0.0 | 0.0 | 0.00 | 0.00 | 0.00 | 83 | 1008.5 |
| 20260831095826 | 57 | 0 | 0.0 | 0.0 | 0.00 | 0.00 | 0.00 | 83 | 1008.5 |
| 20260831094825 | 57 | 102 | 1.7 | 3.5 | 0.00 | 0.00 | 0.00 | 83 | 1008.4 |